Regional Weather Roundup
Issued by NWS

Home | Current Version | Previous Version | Graphics & Text | Print | Product List | Glossary On
Versions: 1 2 3 4 5 6 7 8 9 10 11 12 13 14 15 16 17 18 19 20 21 22 23 24 25
000
ASUS45 KTFX 200010
RWRMT
MONTANA REGIONAL WEATHER ROUNDUP
NATIONAL WEATHER SERVICE GREAT FALLS MT
600 PM MDT TUE SEP 19 2017

NOTE: "FAIR" INDICATES FEW OR NO CLOUDS BELOW 12000 FEET WITH NO
SIGNIFICANT WEATHER AND/OR OBSTRUCTIONS TO VISIBILITY.

MTZ001>007-043-200100-
WEST OF THE DIVIDE

CITY           SKY/WX    TMP DP  RH WIND       PRES   REMARKS
KALISPELL      CLOUDY    48  39  71 SW8       29.68R
MISSOULA       CLOUDY    47  35  63 S9        29.76R
BUTTE          CLOUDY    43  29  57 SW13G24   29.76R
MULLAN PASS    SNOW      32  30  92 CALM      29.70S VSB<1/4
ANACONDA         N/A     39  30  70 W17G25    29.76R WCI  30
DEER LODGE       N/A     45  34  65 CALM      29.73S
HAMILTON         N/A     46  32  57 S13       29.76R
LIBBY            N/A     48  43  81 CALM      29.67S
PLAINS           N/A     51  36  56 S7        29.75R
$$

MTZ008-052>055-200100-
SOUTHWEST MONTANA

CITY           SKY/WX    TMP DP  RH WIND       PRES   REMARKS
BOZEMAN        CLOUDY    48  35  60 SW7       29.74F
DILLON         CLOUDY    46  31  55 NW13      29.75R
W YELLOWSTONE  CLOUDY    36  32  87 S12G18    29.82S WCI  27
ENNIS          CLOUDY    46  30  53 SE9       29.81S
THREE FORKS      N/A     50  32  50 S6        29.75S
TWIN BRIDGES     N/A     44  34  68 W5        29.80R
$$

MTZ009-010-012-014-046-048-049-054-200100-
EAST SLOPES AND CENTRAL MONTANA

CITY           SKY/WX    TMP DP  RH WIND       PRES   REMARKS
CUT BANK       PTSUNNY   46  34  62 SW25G40   29.60R
GREAT FALLS    CLOUDY    48  32  53 SW15G30   29.64S
MALMSTROM AFB  CLOUDY    49  33  54 SW21      29.64S
HELENA         CLOUDY    53  32  44 W14       29.69F
BOWMANS CRNR     N/A     46  31  56 S13G25    29.64F
CHOTEAU          N/A     52  27  37 SW10      29.64R
FAIRFIELD        N/A     53  26  35 W20G25    29.62S
POWER            N/A     51  32  49 SW16G22   29.62S
RAYNESFORD     PTSUNNY   48  32  53 W15G30    29.66R
$$

MTZ011-013-016-021-045-047-050-051-200100-
NORTH CENTRAL MONTANA

CITY           SKY/WX    TMP DP  RH WIND       PRES   REMARKS
HAVRE          SUNNY     61  27  27 SW15      29.56S
LEWISTOWN      PTSUNNY   53  29  39 W3        29.64S
N BAR RANCH    PTSUNNY   50  27  40 SW12      29.68R
CHINOOK          N/A     61  28  29 CALM      29.56S
DENTON           N/A     56  26  31 W15G25    29.60R
GEYSER         PTSUNNY   52  28  38 W20G25    29.64R
GRASS RANGE    PTSUNNY   54  26  33 W9G23     29.61R
JUDITH GAP       N/A     50  25  38 CALM      29.66R
WINIFRED         N/A     56  28  34 NW10      29.62R
$$

MTZ017>020-022>027-061-062-200100-
NORTHEAST MONTANA

CITY           SKY/WX    TMP DP  RH WIND       PRES   REMARKS
GLASGOW        CLOUDY    58  33  39 W13       29.56R
JORDAN           N/A     60  31  33 W17       29.60S
SIDNEY         CLOUDY    58  39  49 W17       29.57R
WOLF POINT     CLOUDY    58  38  47 W12       29.57S
MALTA          SUNNY     59  28  31 W18       29.58S
PLENTYWOOD       N/A     57  41  54 W12G17    29.52R
POPLAR           N/A     57  37  47 W16       29.56S
SCOBEY           N/A     55  37  50 W15       29.56R
$$

MTZ028>42-056>058-200100-
SOUTHCENTRAL AND SOUTHEAST MONTANA

CITY           SKY/WX    TMP DP  RH WIND       PRES   REMARKS
BAKER          CLOUDY    50  45  83 W14       29.67R
BILLINGS       MOSUNNY   55  33  43 NW14      29.67R
LIVINGSTON     CLOUDY    47  32  56 SW16      29.73R
MILES CITY     CLOUDY    54  37  52 W9        29.66R
BIG TIMBER     PTSUNNY   45  36  70 W10G18    29.75R
EKALAKA          N/A     47  39  73 W10       29.70R
HARLOWTON      PTSUNNY   49  33  54 MISG      29.68R
LAUREL           N/A     55  30  38 W7        29.69R
$$

REGIONAL REPORTS...DAKOTAS

CITY           SKY/WX    TMP DP  RH WIND       PRES   REMARKS
WILLISTON      LGT RAIN  58  41  53 W17G24    29.54R
MINOT          CLOUDY    63  55  75 SW7       29.48R
DICKINSON      LGT RAIN  52  50  93 W14       29.60R
BEACH          CLOUDY    50  48  93 W9        29.66R
CROSBY         MOCLDY    59  46  63 NW12      29.51R
TIOGA          DRIZZLE   55  52  88 W8        29.52S
WATFORD CITY     N/A     55  41  58 W16       29.55R
BISMARCK       CLOUDY    64  47  53 W17       29.52R
GRAND FORKS    TSTM      67  66  97 E26       29.46F
FARGO          TSTM      71  66  84 SE10G18   29.44R
BUFFALO SD       N/A     50  46  86 W14       29.62R
RAPID CITY     CLOUDY    52  48  87 N15       29.68R
$$

REGIONAL REPORTS...WYOMING/IDAHO/WASHINGTON

CITY           SKY/WX    TMP DP  RH WIND       PRES   REMARKS
GILLETTE       PTSUNNY   45  41  86 SW5       29.74F
SHERIDAN       SUNNY     51  34  52 W5        29.73R
BUFFALO WY     MOSUNNY   46  36  68 NW8       29.76R
CODY           CLOUDY    47  31  53 NW13      29.78R
YELLOWSTONE LA   N/A     29  27  92 CALM      29.85R
IDAHO FALLS    PTSUNNY   51  32  48 SW23G32   29.86R
SALMON         CLOUDY    52  30  43 W8        29.76R
BOISE          CLOUDY    59  33  37 W9        29.86F
SPOKANE        TSTM      44  43  96 NE7       29.72R
$$

REGIONAL REPORTS...ALBERTA

CITY           SKY/WX    TMP DP  RH WIND       PRES   REMARKS
EDMONTON       CLOUDY    41  36  81 W17G24    29.42S
CALGARY        MOSUNNY   55  16  21 W14G21    29.48S
LETHBRIDGE     PTSUNNY   55  27  33 SW21      29.53R
MEDICINE HAT   MOSUNNY   57  27  30 CALM      29.52S
$$

REGIONAL REPORTS...SASKATCHEWAN

CITY           SKY/WX    TMP DP  RH WIND       PRES   REMARKS
SWIFT CURRENT  SUNNY     52  34  50 NW15G21   29.51R
REGINA         MOCLDY    54  45  71 W10       29.47R
SASKATOON      PTSUNNY   50  46  87 W14G20    29.44R
$$




USA.gov is the U.S. government's official web portal to all federal, state and local government web resources and services.